Location: Cabeza de los Veneras
(40.2000°N, 5.2000°W)
Time: 03:50:22
(UTC+00:00)

Okean O Rocket - Visible Passes

Search period start: 25 July 2024 00:00
Search period end: 04 August 2024 00:00
Orbit: 618 x 639 km, 98.1° (Epoch: 24 July)

Date Brightness Start Highest point End Pass type
(mag) Time Alt. Az. Time Alt. Az. Time Alt. Az.
25 Jul 4.2 21:40:33 10° SW 21:43:06 15° W 21:45:40 10° NW visible
26 Jul 1.5 20:22:10 10° SSE 20:26:27 75° ENE 20:30:48 10° N visible
27 Jul 1.9 20:42:06 10° S 20:46:21 65° WSW 20:50:41 10° NNW visible
28 Jul 2.9 21:02:18 10° SSW 21:06:18 38° W 21:10:22 10° NNW visible
29 Jul 3.7 21:22:51 10° SSW 21:26:19 23° W 21:29:48 10° NW visible
30 Jul 1.9 20:05:43 10° SE 20:09:51 48° ENE 20:14:02 10° N visible
30 Jul 4.2 21:44:02 10° SW 21:46:22 14° W 21:48:44 10° WNW visible
31 Jul 1.5 20:25:23 10° SSE 20:29:41 81° ENE 20:34:03 10° N visible
01 Aug 2.1 20:45:19 10° S 20:49:35 60° W 20:53:53 10° NNW visible
02 Aug 3.0 21:05:34 10° SSW 21:09:31 35° W 21:13:32 10° NNW visible
03 Aug 3.8 21:26:10 10° SW 21:29:31 22° W 21:32:55 10° NW visible
